Location: Barcelona
(41.3830°N, 2.1830°E)
Time: 19:06:13
(UTC+01:00)

ISS - Pass Details

Date: 21 January 2020
Orbit: 415 x 422 km, 51.6° (Epoch: 23 January)

Event Time Altitude Azimuth Distance (km) Brightness Sun altitude
Rises 19:06:55 0° 222° (SW) 2,357 1.1 -13.8°
Reaches altitude 10° 19:09:02 10° 217° (SW) 1,496 -0.2 -14.2°
Maximum altitude 19:12:19 53° 140° (SE) 523 -3.5 -14.8°
Enters shadow 19:13:31 33° 81° (E) 730 -3.1 -15.0°
